Location: Ward Pound Ridge Reservation
(41.2500°N, 73.6000°W)
Time: 14:50:44
(UTC-04:00)

Tiangong 1 - Pass Details

Date: 08 October 2017
Orbit: 293 x 320 km, 42.8° (Epoch: 17 October)

Event Time Altitude Azimuth Distance (km) Brightness Sun altitude
Rises 18:58:05 0° 255° (WSW) 2,040 6.7 -7.2°
Reaches altitude 10° 19:00:04 10° 255° (WSW) 1,206 5.1 -7.5°
Maximum altitude 19:02:46 88° 168° (SSE) 315 0.6 -8.1°
Enters shadow 19:05:09 12° 77° (ENE) 1,072 2.7 -8.5°
